Alto, NM

6:38 PM MDT on October 01, 2014 (GMT -0600)
Eagle Creek Canyon | Change Station
CLOSE
Current Station
Personal Weather Station
Location: Ruidoso, NM
Elevation: 7200 ft
Nearby Weather Stations

Elev 7200 ft 33.39 °N, 105.65 °W | Updated 1 minute ago

Clear
Clear
61.3 °F
Feels Like 61.3 °F
N
1.0
Wind Variable Wind from WSW
Gusts 3.0 mph

Today
High -- | Low -- °F
--% Chance of Precip.
Yesterday
High -- | Low -- °F
Precip. -- in
6:57 AM 6:47 PM
First Quarter, 52% visible
Pressure 30.03 in
Visibility 10.0 miles
Clouds Clear
Dew Point 27 °F
Humidity 27%
Rainfall 0.00 in
Snow Depth 0 in , 3 in , 19 in
UV 0 out of 12
Pollen 7.70 out of 12
Air Quality Not available.
Flu Activity Not available.
METAR KSRR 020015Z AUTO 23014KT 10SM CLR 18/M02 A3003 RMK AO2

More Conditions Fewer Conditions

Pressure 30.03 in
Visibility 10.0 miles
Clouds Clear
Dew Point 27 °F
Humidity 27%
Rainfall 0.00 in
Snow Depth 0 in , 3 in , 19 in
UV 0 out of 12
Pollen 7.70 out of 12
Air Quality Not available.
Flu Activity Not available.
METAR KSRR 020015Z AUTO 23014KT 10SM CLR 18/M02 A3003 RMK AO2

More Conditions Fewer Conditions

10-Day Weather Forecast

Almanac

Astronomy

Oct. 01, 2014 Rise Set
Actual Time 6:57 AM MDT 6:47 PM MDT
Civil Twilight 6:32 AM MDT 7:11 PM MDT
Nautical Twilight 6:03 AM MDT 7:40 PM MDT
Astronomical Twilight 5:34 AM MDT 8:09 PM MDT
Moon 1:47 PM MDT (10/1) No Moon Set
Length of Visible Light 12h 39m
Length of Day
11h 50m
Tomorrow will be 2m 2s shorter.
First Quarter, 52% of the Moon is Illuminated
Today
First Quarter
Oct 8
Full
Oct 15
Last Quarter
Oct 23
New
Oct 30
First Quarter

Today's Extremes

State Highs State Lows

Community

WunderPhotos

Upload Photos

1,758,101 photos uploaded!

WunderBlogs® & News

Nearby

Snow Depth

Station Depth Elevation
Hopewell 0 in 10000 ft
Wesner Springs 3 in 11120 ft
Silver Creek Divide 19 in 9000 ft
Signal Peak 0 in 8360 ft
Sierra Blanca 0 in 10280 ft

Earthquake Activity

City Distance Mag. Time & Date
No recent earthquake activity has been reported nearby.
Minimum magnitude displayed is 2.5.

Coastal Water Temperatures

Place Temperature
No Stations Reporting

Nearby Weather Stations